GW1009 Weather Reports


time (UTC)temp
C
wind
direction
speed
KPH
gust
KPH
rain 1hr
cm
rain 24hr
cm
rain mn
cm
humidity
%
barometer
mb
20260904234519 18 293 0.0 6.4 0.00 0.00 0.00 70 1010.9
20260904234019 18 293 1.6 9.7 0.00 0.00 0.00 69 1010.9
20260904233519 18 284 0.0 9.7 0.00 0.00 0.00 69 1010.9
20260904233020 18 286 0.0 4.8 0.00 0.00 0.00 69 1010.9
20260904232521 18 305 0.0 4.8 0.00 0.00 0.00 68 1010.8
20260904232018 18 306 1.6 8.0 0.00 0.00 0.00 67 1010.8
20260904231522 18 306 3.2 11.3 0.00 0.00 0.00 66 1010.9
20260904231018 18 294 4.8 11.3 0.00 0.00 0.00 66 1010.7
20260904230518 19 298 4.8 12.9 0.00 0.00 0.00 66 1010.8
20260904230021 19 307 4.8 14.5 0.00 0.00 0.00 66 1010.8
20260904225518 19 300 6.4 14.5 0.00 0.00 0.00 65 1010.8
20260904225018 19 304 6.4 12.9 0.00 0.00 0.00 65 1010.8
20260904224517 19 294 6.4 12.9 0.00 0.00 0.00 65 1010.7
20260904224017 19 291 4.8 12.9 0.00 0.00 0.00 65 1010.7
20260904223518 20 253 3.2 16.1 0.00 0.00 0.00 64 1010.7
20260904223023 20 286 3.2 16.1 0.00 0.00 0.00 63 1010.6
20260904222520 20 278 4.8 14.5 0.00 0.00 0.00 64 1010.6
20260904222015 20 294 6.4 14.5 0.00 0.00 0.00 63 1010.7
20260904221515 20 285 6.4 14.5 0.00 0.00 0.00 63 1010.7
20260904221015 20 325 4.8 14.5 0.00 0.00 0.00 64 1010.6
20260904220518 20 299 9.7 16.1 0.00 0.00 0.00 64 1010.6
20260904220015 20 309 8.0 16.1 0.00 0.00 0.00 64 1010.5
20260904215515 20 311 8.0 19.3 0.00 0.00 0.00 63 1010.5
20260904215017 20 311 9.7 19.3 0.00 0.00 0.00 62 1010.5
20260904214518 20 307 9.7 24.1 0.00 0.00 0.00 62 1010.6
20260904214013 21 293 12.9 27.4 0.00 0.00 0.00 61 1010.5
20260904213514 21 299 12.9 24.1 0.00 0.00 0.00 59 1010.6
20260904213025 21 304 11.3 25.7 0.00 0.00 0.00 58 1010.5
20260904212516 21 317 14.5 27.4 0.00 0.00 0.00 56 1010.5
20260904212012 21 285 11.3 29.0 0.00 0.00 0.00 56 1010.5
20260904211518 21 288 14.5 29.0 0.00 0.00 0.00 54 1010.6
20260904211012 21 311 11.3 29.0 0.00 0.00 0.00 55 1010.5
20260904210512 21 310 14.5 25.7 0.00 0.00 0.00 54 1010.6
20260904210023 21 300 9.7 22.5 0.00 0.00 0.00 56 1010.6
20260904205512 21 309 11.3 24.1 0.00 0.00 0.00 56 1010.6
20260904205011 21 306 16.1 24.1 0.00 0.00 0.00 56 1010.6
20260904204520 21 290 12.9 25.7 0.00 0.00 0.00 57 1010.7
20260904204011 21 286 14.5 29.0 0.00 0.00 0.00 56 1010.7
20260904203511 21 277 9.7 25.7 0.00 0.00 0.00 57 1010.7
20260904203011 21 281 12.9 25.7 0.00 0.00 0.00 56 1010.7
20260904202515 21 286 11.3 27.4 0.00 0.00 0.00 55 1010.8
20260904202012 22 285 16.1 27.4 0.00 0.00 0.00 53 1010.9
20260904201510 22 309 14.5 32.2 0.00 0.00 0.00 55 1010.8
20260904201010 22 311 16.1 27.4 0.00 0.00 0.00 53 1010.8
20260904200515 22 302 14.5 27.4 0.00 0.00 0.00 56 1010.9
20260904200009 22 315 14.5 27.4 0.00 0.00 0.00 55 1010.9
20260904195509 22 283 14.5 24.1 0.00 0.00 0.00 56 1010.9
20260904195008 22 325 12.9 25.7 0.00 0.00 0.00 54 1010.9
20260904194508 22 288 11.3 27.4 0.00 0.00 0.00 54 1010.9
20260904194008 22 274 14.5 24.1 0.00 0.00 0.00 57 1010.9
20260904193508 22 255 11.3 22.5 0.00 0.00 0.00 55 1011.0
20260904193008 21 295 9.7 27.4 0.00 0.00 0.00 57 1010.9
20260904192508 22 316 14.5 27.4 0.00 0.00 0.00 56 1010.9
20260904192007 22 305 14.5 25.7 0.00 0.00 0.00 57 1011.0
20260904191510 22 326 9.7 24.1 0.00 0.00 0.00 55 1011.0
20260904191007 22 292 9.7 25.7 0.00 0.00 0.00 56 1010.9
20260904190507 22 286 14.5 25.7 0.00 0.00 0.00 55 1010.9
20260904190007 22 318 11.3 32.2 0.00 0.00 0.00 58 1010.9
20260904185506 22 305 16.1 32.2 0.00 0.00 0.00 54 1010.9
20260904185006 22 290 12.9 25.7 0.00 0.00 0.00 54 1011.0
20260904184506 22 284 16.1 33.8 0.00 0.00 0.00 53 1011.0
20260904184006 22 282 11.3 33.8 0.00 0.00 0.00 56 1011.1
20260904183506 22 292 11.3 29.0 0.00 0.00 0.00 56 1011.2
20260904183005 22 294 14.5 29.0 0.00 0.00 0.00 56 1011.1
20260904182505 22 278 16.1 27.4 0.00 0.00 0.00 55 1011.0
20260904182004 22 321 12.9 22.5 0.00 0.00 0.00 56 1011.0
20260904181504 22 276 11.3 30.6 0.00 0.00 0.00 56 1011.2
20260904181006 22 296 17.7 30.6 0.00 0.00 0.00 55 1011.1
20260904180506 22 277 12.9 27.4 0.00 0.00 0.00 57 1011.2
20260904180003 22 289 12.9 27.4 0.00 0.00 0.00 59 1011.3
20260904175503 22 279 12.9 29.0 0.00 0.00 0.00 59 1011.3
20260904175005 22 319 12.9 32.2 0.00 0.00 0.00 57 1011.1
20260904174502 22 313 19.3 32.2 0.00 0.00 0.00 61 1011.3
20260904174000 22 305 11.3 20.9 0.00 0.00 0.00 62 1011.2
20260904173501 22 281 11.3 20.9 0.00 0.00 0.00 61 1011.3
20260904173127 22 211 11.3 25.7 0.00 0.00 0.00 63 1011.4
20260904172600 22 289 14.5 25.7 0.00 0.00 0.00 63 1011.3
20260904172100 22 289 11.3 24.1 0.00 0.00 0.00 62 1011.4
20260904171609 21 338 14.5 24.1 0.00 0.00 0.00 63 1011.5
20260904171101 21 295 11.3 20.9 0.00 0.00 0.00 63 1011.5
20260904170600 21 300 12.9 22.5 0.00 0.00 0.00 62 1011.5
20260904170059 21 327 11.3 25.7 0.00 0.00 0.00 64 1011.6
20260904165558 21 302 17.7 25.7 0.00 0.00 0.00 62 1011.6
20260904165058 21 308 14.5 24.1 0.00 0.00 0.00 63 1011.7
20260904164559 21 302 16.1 24.1 0.00 0.00 0.00 62 1011.5
20260904164057 21 311 6.4 22.5 0.00 0.00 0.00 61 1011.4
20260904163556 21 317 11.3 27.4 0.00 0.00 0.00 64 1011.4
20260904163056 21 313 14.5 27.4 0.00 0.00 0.00 62 1011.5
20260904162556 21 302 12.9 25.7 0.00 0.00 0.00 62 1011.6
20260904162058 21 311 9.7 22.5 0.00 0.00 0.00 63 1011.5
20260904161556 21 309 11.3 24.1 0.00 0.00 0.00 63 1011.5
20260904161055 21 338 17.7 24.1 0.00 0.00 0.00 59 1011.5
20260904160554 22 315 9.7 22.5 0.00 0.00 0.00 63 1011.5
20260904160054 22 306 14.5 22.5 0.00 0.00 0.00 63 1011.4
20260904155553 21 328 8.0 24.1 0.00 0.00 0.00 65 1011.6
20260904155052 21 300 14.5 24.1 0.00 0.00 0.00 64 1011.6
20260904154552 21 315 16.1 24.1 0.00 0.00 0.00 63 1011.8
20260904154055 21 257 9.7 22.5 0.00 0.00 0.00 62 1011.7
20260904153551 21 290 12.9 22.5 0.00 0.00 0.00 65 1011.9
20260904153050 21 275 8.0 22.5 0.00 0.00 0.00 66 1011.8
20260904152552 21 301 11.3 22.5 0.00 0.00 0.00 65 1011.9
20260904152050 21 320 8.0 20.9 0.00 0.00 0.00 67 1011.9
20260904151549 21 294 12.9 22.5 0.00 0.00 0.00 67 1011.9
20260904151049 21 323 11.3 24.1 0.00 0.00 0.00 68 1011.9
20260904150547 21 327 14.5 24.1 0.00 0.00 0.00 69 1011.9
20260904150104 20 310 11.3 19.3 0.00 0.00 0.00 70 1011.8
20260904145547 20 313 9.7 19.3 0.00 0.00 0.00 71 1011.8
20260904145046 20 319 12.9 19.3 0.00 0.00 0.00 71 1011.9
20260904144545 20 300 9.7 19.3 0.00 0.00 0.00 71 1011.9
20260904144045 20 264 4.8 19.3 0.00 0.00 0.00 75 1012.1
20260904143544 20 311 9.7 19.3 0.00 0.00 0.00 71 1012.1
20260904143044 20 306 8.0 19.3 0.00 0.00 0.00 75 1012.0
20260904142543 20 283 6.4 19.3 0.00 0.00 0.00 77 1012.1
20260904142042 20 331 6.4 16.1 0.00 0.00 0.00 76 1012.0
20260904141545 19 324 6.4 17.7 0.00 0.00 0.00 77 1012.2
20260904141040 19 302 8.0 14.5 0.00 0.00 0.00 77 1012.2
20260904140541 19 292 8.0 19.3 0.00 0.00 0.00 78 1012.2
20260904140041 19 280 9.7 19.3 0.00 0.00 0.00 77 1012.1
20260904135539 20 284 8.0 20.9 0.00 0.00 0.00 76 1012.1
20260904135037 19 296 11.3 20.9 0.00 0.00 0.00 77 1011.9
20260904134546 19 304 3.2 14.5 0.00 0.00 0.00 81 1011.9
20260904134034 18 321 8.0 14.5 0.00 0.00 0.00 83 1011.7
20260904133533 18 284 6.4 16.1 0.00 0.00 0.00 83 1011.9
20260904133033 18 292 6.4 16.1 0.00 0.00 0.00 85 1011.7
20260904132535 18 263 3.2 11.3 0.00 0.00 0.00 86 1011.7
20260904132032 18 306 3.2 8.0 0.00 0.00 0.00 87 1011.6
20260904131529 18 294 4.8 11.3 0.00 0.00 0.00 87 1011.8
20260904131029 18 286 4.8 14.5 0.00 0.00 0.00 87 1011.8
20260904130533 18 305 8.0 16.1 0.00 0.00 0.00 86 1011.9
20260904130034 18 282 8.0 16.1 0.00 0.00 0.00 87 1011.7
20260904125527 18 311 8.0 16.1 0.00 0.00 0.00 89 1011.8
20260904125026 18 317 3.2 12.9 0.00 0.00 0.00 90 1011.7
20260904124525 18 292 4.8 12.9 0.00 0.00 0.00 91 1011.8
20260904124029 18 312 6.4 0.0 0.00 0.00 0.00 92 1011.9
20260904123522 17 294 3.2 12.9 0.00 0.00 0.00 91 1011.8
20260904123022 17 305 3.2 12.9 0.00 0.00 0.00 92 1011.8
20260904122525 17 299 4.8 11.3 0.00 0.00 0.00 93 1011.8
20260904122020 17 300 3.2 9.7 0.00 0.00 0.00 93 1011.7
20260904121519 17 311 4.8 9.7 0.00 0.00 0.00 93 1011.7
20260904121017 17 311 3.2 9.7 0.00 0.00 0.00 93 1011.7
20260904120518 17 279 4.8 9.7 0.00 0.00 0.00 93 1011.6
20260904120019 17 360 3.2 12.9 0.00 0.00 0.00 94 1011.6
20260904115520 17 282 3.2 12.9 0.00 0.00 0.00 94 1011.7
20260904115016 17 360 3.2 12.9 0.00 0.00 0.00 94 1011.6
20260904114529 17 360 1.6 8.0 0.00 0.00 0.00 94 1011.5
20260904114017 17 360 1.6 8.0 0.00 0.00 0.00 94 1011.5
20260904113516 17 360 3.2 8.0 0.00 0.00 0.00 94 1011.4
20260904113015 17 280 1.6 6.4 0.00 0.00 0.00 94 1011.5
20260904112514 16 301 1.6 8.0 0.00 0.00 0.00 94 1011.3
20260904112013 16 248 3.2 8.0 0.00 0.00 0.00 94 1011.2
20260904111523 16 288 3.2 11.3 0.00 0.00 0.00 94 1011.2
20260904111013 16 271 4.8 11.3 0.00 0.00 0.00 94 1011.2
20260904110512 16 304 3.2 11.3 0.00 0.00 0.00 94 1011.2
20260904110012 16 295 3.2 9.7 0.00 0.00 0.00 94 1011.1
20260904105513 16 305 3.2 8.0 0.00 0.00 0.00 94 1011.0
20260904105011 16 276 0.0 9.7 0.00 0.00 0.00 94 1010.9
20260904104510 16 360 1.6 9.7 0.00 0.00 0.00 94 1010.9
20260904104011 16 264 0.0 6.4 0.00 0.00 0.00 94 1010.8
20260904103510 16 360 0.0 6.4 0.00 0.00 0.00 94 1010.8
20260904103011 16 360 0.0 0.0 0.00 0.00 0.00 94 1010.8
20260904102513 16 360 0.0 0.0 0.00 0.00 0.00 94 1010.7
20260904102010 16 223 0.0 0.0 0.00 0.00 0.00 94 1010.6
20260904101510 16 222 0.0 0.0 0.00 0.00 0.00 94 1010.6
20260904101009 16 223 0.0 1.6 0.00 0.00 0.00 94 1010.6
20260904100509 16 360 0.0 1.6 0.00 0.00 0.00 94 1010.6
20260904100010 16 360 0.0 3.2 0.00 0.00 0.00 94 1010.6
20260904095513 16 360 1.6 3.2 0.00 0.00 0.00 94 1010.6
20260904095008 16 360 0.0 3.2 0.00 0.00 0.00 94 1010.5
20260904094518 16 360 0.0 4.8 0.00 0.00 0.00 94 1010.5
20260904094008 16 360 0.0 4.8 0.00 0.00 0.00 94 1010.5
20260904093508 16 317 0.0 3.2 0.00 0.00 0.00 94 1010.4
20260904093008 16 259 0.0 0.0 0.00 0.00 0.00 94 1010.4
20260904092511 15 260 0.0 0.0 0.00 0.00 0.00 94 1010.3
20260904092009 15 259 0.0 0.0 0.00 0.00 0.00 94 1010.3
20260904091507 15 260 0.0 0.0 0.00 0.00 0.00 94 1010.2
20260904091008 15 260 0.0 0.0 0.00 0.00 0.00 94 1010.3
20260904090508 15 260 0.0 0.0 0.00 0.00 0.00 94 1010.2
20260904090007 15 260 0.0 0.0 0.00 0.00 0.00 94 1010.3
20260904085507 15 260 0.0 0.0 0.00 0.00 0.00 94 1010.2
20260904085007 15 260 0.0 0.0 0.00 0.00 0.00 93 1010.2
20260904084511 16 360 0.0 0.0 0.00 0.00 0.00 94 1010.2
20260904084006 16 260 0.0 0.0 0.00 0.00 0.00 94 1010.2
20260904083508 16 260 0.0 1.6 0.00 0.00 0.00 94 1010.2
20260904083010 16 260 0.0 1.6 0.00 0.00 0.00 94 1010.2
20260904082507 16 309 0.0 0.0 0.00 0.00 0.00 94 1010.2
20260904082009 16 309 0.0 6.4 0.00 0.00 0.00 94 1010.2
20260904081507 16 308 0.0 6.4 0.00 0.00 0.00 94 1010.2
20260904081003 16 297 0.0 0.0 0.00 0.00 0.00 94 1010.1
20260904080503 16 296 0.0 0.0 0.00 0.00 0.00 94 1010.0
20260904080006 16 297 0.0 0.0 0.00 0.00 0.00 93 1010.1
20260904075503 16 297 0.0 0.0 0.00 0.00 0.00 93 1010.1
20260904075002 16 297 0.0 0.0 0.00 0.00 0.00 93 1010.0
20260904074501 16 298 0.0 0.0 0.00 0.00 0.00 93 1010.0
20260904074002 16 298 0.0 0.0 0.00 0.00 0.00 93 1010.0
20260904073502 16 298 0.0 0.0 0.00 0.00 0.00 93 1010.1
20260904073001 16 298 0.0 0.0 0.00 0.00 0.00 93 1010.0
20260904072601 15 297 0.0 0.0 0.00 0.00 0.00 93 1010.0
20260904072100 15 360 0.0 0.0 0.00 0.00 0.00 93 1009.9
20260904071559 15 360 0.0 0.0 0.00 0.00 0.00 93 1010.0
20260904071059 15 298 0.0 0.0 0.00 0.00 0.00 93 1010.0
20260904070558 15 298 0.0 0.0 0.00 0.00 0.00 93 1010.0
20260904070100 15 298 0.0 0.0 0.00 0.00 0.00 93 1009.9
20260904065556 16 298 0.0 0.0 0.00 0.00 0.00 92 1010.0
20260904065055 16 298 0.0 0.0 0.00 0.00 0.00 92 1010.0
20260904064554 16 298 0.0 0.0 0.00 0.00 0.00 92 1010.1
20260904064053 16 298 0.0 0.0 0.00 0.00 0.00 92 1010.1
20260904063555 16 298 0.0 0.0 0.00 0.00 0.00 92 1010.1
20260904063058 16 298 0.0 0.0 0.00 0.00 0.00 92 1010.2
20260904062554 16 298 0.0 0.0 0.00 0.00 0.00 92 1010.1
20260904062051 16 298 0.0 0.0 0.00 0.00 0.00 92 1010.3
20260904061550 16 298 0.0 0.0 0.00 0.00 0.00 92 1010.3
20260904061054 16 298 0.0 0.0 0.00 0.00 0.00 92 1010.3
20260904060549 16 298 0.0 0.0 0.00 0.00 0.00 92 1010.4
20260904060050 16 298 0.0 0.0 0.00 0.00 0.00 92 1010.5
20260904055547 16 298 0.0 0.0 0.00 0.00 0.00 92 1010.6
20260904055047 16 298 0.0 0.0 0.00 0.00 0.00 92 1010.7
20260904054549 16 298 0.0 0.0 0.00 0.00 0.00 92 1010.6
20260904054046 16 298 0.0 0.0 0.00 0.00 0.00 92 1010.7
20260904053545 16 298 0.0 0.0 0.00 0.00 0.00 92 1010.8
20260904053046 16 298 0.0 0.0 0.00 0.00 0.00 92 1010.8
20260904052547 17 298 0.0 0.0 0.00 0.00 0.00 92 1010.8
20260904052045 17 298 0.0 0.0 0.00 0.00 0.00 92 1010.8
20260904051546 17 298 0.0 0.0 0.00 0.00 0.00 92 1010.8
20260904051043 17 298 0.0 0.0 0.00 0.00 0.00 92 1010.9
20260904050543 17 298 0.0 0.0 0.00 0.00 0.00 92 1010.9
20260904050043 17 298 0.0 0.0 0.00 0.00 0.00 92 1011.0
20260904045543 17 298 0.0 0.0 0.00 0.00 0.00 92 1011.0
20260904045043 17 298 0.0 0.0 0.00 0.00 0.00 92 1010.9
20260904044543 17 298 0.0 0.0 0.00 0.00 0.00 91 1011.0
20260904044042 17 298 0.0 0.0 0.00 0.00 0.00 91 1010.9
20260904043542 17 298 0.0 0.0 0.00 0.00 0.00 91 1011.0
20260904043047 17 298 0.0 0.0 0.00 0.00 0.00 91 1010.9
20260904042542 17 298 0.0 0.0 0.00 0.00 0.00 91 1010.9
20260904042042 17 298 0.0 0.0 0.00 0.00 0.00 91 1010.7
20260904041540 17 298 0.0 0.0 0.00 0.00 0.00 91 1010.7
20260904041040 17 298 0.0 0.0 0.00 0.00 0.00 91 1010.8
20260904040542 17 298 0.0 0.0 0.00 0.00 0.00 91 1010.9
20260904040039 17 299 0.0 0.0 0.00 0.00 0.00 91 1010.9
20260904035540 17 299 0.0 0.0 0.00 0.10 0.00 91 1010.9
20260904035039 17 299 0.0 0.0 0.00 0.10 0.00 91 1011.0
20260904034544 17 299 0.0 0.0 0.00 0.10 0.00 91 1011.0
20260904034038 17 299 0.0 0.0 0.00 0.10 0.00 91 1011.0
20260904033538 17 299 0.0 0.0 0.00 0.10 0.00 91 1011.0
20260904033039 17 299 0.0 0.0 0.00 0.10 0.00 91 1010.9
20260904032537 17 298 0.0 0.0 0.00 0.10 0.00 91 1011.0
20260904032037 17 298 0.0 0.0 0.00 0.10 0.00 90 1011.1
20260904031536 17 298 0.0 0.0 0.00 0.10 0.00 90 1011.2
20260904031035 17 298 0.0 0.0 0.00 0.10 0.00 91 1011.1
20260904030535 17 298 0.0 0.0 0.00 0.10 0.00 91 1011.1
20260904030035 17 298 0.0 0.0 0.00 0.10 0.00 90 1011.2
20260904025535 17 298 0.0 0.0 0.00 0.30 0.00 90 1011.2
20260904025035 17 298 0.0 0.0 0.00 0.30 0.00 90 1011.1
20260904024545 17 298 0.0 0.0 0.00 0.30 0.00 90 1011.2
20260904024035 17 298 0.0 0.0 0.00 0.30 0.00 89 1011.3
20260904023534 17 298 0.0 0.0 0.00 0.30 0.00 89 1011.2
20260904023035 17 298 0.0 0.0 0.00 0.30 0.00 89 1011.2
20260904022535 17 298 0.0 0.0 0.00 0.30 0.00 89 1011.3
20260904022034 17 298 0.0 0.0 0.00 0.30 0.00 88 1011.3
20260904021535 17 298 0.0 0.0 0.00 0.30 0.00 88 1011.4
20260904021036 17 298 0.0 0.0 0.00 0.30 0.00 87 1011.7
20260904020533 17 298 0.0 0.0 0.00 0.30 0.00 87 1011.7
20260904020033 17 298 0.0 0.0 0.00 0.30 0.00 86 1011.6
20260904015532 18 296 0.0 0.0 0.00 0.41 0.00 86 1011.6
20260904015032 18 296 0.0 0.0 0.00 0.41 0.00 86 1011.6
20260904014536 18 296 0.0 0.0 0.00 0.41 0.00 85 1011.6
20260904014034 18 296 0.0 0.0 0.00 0.41 0.00 85 1011.7
20260904013532 18 296 0.0 0.0 0.00 0.41 0.00 85 1011.6
20260904013036 18 296 0.0 0.0 0.00 0.41 0.00 85 1011.7
20260904012534 18 296 0.0 0.0 0.00 0.41 0.00 85 1011.7
20260904012032 18 296 0.0 0.0 0.00 0.41 0.00 85 1011.7
20260904011536 18 296 0.0 0.0 0.00 0.41 0.00 85 1011.5
20260904011033 18 296 0.0 0.0 0.00 0.41 0.00 86 1011.4
20260904010532 18 296 0.0 0.0 0.00 0.41 0.00 85 1011.5
20260904010039 18 296 0.0 0.0 0.00 0.41 0.00 85 1011.5
20260904005530 18 296 0.0 0.0 0.00 0.41 0.00 85 1011.4
20260904005030 18 296 0.0 0.0 0.00 0.41 0.00 84 1011.5
20260904004530 18 296 0.0 0.0 0.00 0.41 0.00 84 1011.4
20260904004030 18 296 0.0 0.0 0.00 0.41 0.00 83 1011.3
20260904003530 18 296 0.0 0.0 0.00 0.41 0.00 83 1011.3
20260904003033 18 296 0.0 0.0 0.00 0.41 0.00 81 1011.2
20260904002529 18 296 0.0 0.0 0.00 0.41 0.00 82 1011.1
20260904002030 18 296 0.0 0.0 0.00 0.41 0.00 83 1011.2
20260904001533 18 296 0.0 0.0 0.00 0.41 0.00 82 1011.1
20260904001028 18 296 0.0 0.0 0.00 0.41 0.00 80 1011.2
20260904000529 18 296 0.0 0.0 0.00 0.41 0.00 80 1011.1
20260904000029 18 296 0.0 0.0 0.00 0.41 0.00 80 1011.3
20260903235528 19 296 0.0 0.0 0.00 0.41 0.00 78 1011.2
20260903235028 19 296 0.0 0.0 0.00 0.41 0.00 78 1011.1